Terminal Aerodrome Forecast
Issued by NWS

Home | Current Version | Previous Version | Text Only | Print | Product List | Glossary On
Versions: 1 2 3 4 5 6 7 8 9 10 11 12 13 14 15 16 17 18 19 20 21 22 23 24 25 26
000
FTUS43 KDLH 150500
TAFBRD
TAF
KBRD 150520Z 1506/1606 32011KT P6SM SKC
     FM150800 33008KT P6SM SKC
     FM160200 15006KT P6SM SCT050 BKN120
     FM160500 12007KT P6SM VCSH SCT025 BKN040=

USA.gov is the U.S. government's official web portal to all federal, state and local government web resources and services.